Hourly Weather Roundup
Issued by NWS Central Illinois

Home | Current Version | Previous Version | Text Only | Print | Product List | Glossary On
Versions: 1 2 3 4 5 6 7 8 9 10 11 12 13 14 15 16 17 18 19 20 21 22 23 24 25 26 27 28 29 30 31 32 33 34 35 36 37 38 39 40 41 42 43 44 45 46 47 48 49 50
000
NZUS43 KILX 280710
HWRILX

AREA WEATHER ROUNDUP
NATIONAL WEATHER SERVICE, LINCOLN IL
200 AM CDT SUN AUG 28 2016


CITY           SKY/WX    TMP DP  RH WIND       PRES   REMARKS
BLOOMINGTON    CLOUDY    72  68  87 SW6       30.13F
CHAMPAIGN      PTCLDY    71  68  90 E3        30.13F
DANVILLE       CLOUDY    70  70  99 CALM      30.11F
DECATUR        CLOUDY    73  70  90 CALM      30.12S
EFFINGHAM      CLEAR     70  70 100 CALM      30.13S FOG
FLORA          CLEAR     74  73  97 CALM      30.11S FOG
GALESBURG      PTCLDY    71  70  98 CALM      30.11S
JACKSONVILLE   CLOUDY    74  71  90 CALM      30.10S
LACON          CLEAR     71  70  96 CALM      30.09S
LAWRENCEVILLE  CLEAR     73  73 100 SE6       30.11S
LITCHFIELD     CLOUDY    74  70  87 SE7       30.11F
$$


CITY           SKY/WX    TMP DP  RH WIND       PRES   REMARKS
LINCOLN        CLOUDY    72  72  99 CALM      30.12S
MACOMB         CLEAR     70  70  99 CALM      30.13R
MATTOON        PTCLDY    72  70  93 S3        30.11F
MT CARMEL AP   CLEAR     72  70  95 CALM      30.10F FOG
OLNEY-NOBLE AP CLEAR     70  70 100 CALM      30.11S FOG
PARIS          CLEAR     69  69 100 CALM      30.13F FOG
PEORIA         PTCLDY    73  73 100 SW5       30.10F
PONTIAC        CLOUDY    72  71  99 S5        30.12F
RANTOUL        MOCLDY    73  71  93 CALM      30.13S
ROBINSON       CLEAR     69  68  99 CALM      30.12S FOG
SPRINGFIELD    CLOUDY    77  73  87 CALM      30.11S
TAYLORVILLE    CLOUDY    72  72  99 CALM      30.11F
$$

...REGIONAL REPORTS...


CITY           SKY/WX    TMP DP  RH WIND       PRES   REMARKS
CHICAGO O`HARE MOCLDY    73  70  90 SW3       30.11R
KANKAKEE       CLOUDY    72  71  94 CALM      30.12S
MOLINE         PTCLDY    70  68  93 CALM      30.09S
MOUNT STERLING PTCLDY    72  70  96 CALM      30.11R
MOUNT VERNON   CLEAR     72  66  83 NE3       30.11F
PITTSFIELD     CLOUDY    72  71  95 CALM      30.12R
QUINCY         CLEAR     73  71  93 S5        30.10S
ROCKFORD       CLOUDY    69  67  93 CALM      30.12R
$$


CITY           SKY/WX    TMP DP  RH WIND       PRES   REMARKS
BURLINGTON     MOCLDY    73  73 100 CALM      30.10S
CEDAR RAPIDS   CLEAR     67  67 100 E5        30.11S
DES MOINES     CLEAR     72  68  87 SE7       30.09S
KIRKSVILLE     CLEAR     72  69  90 CALM      30.11R
OTTUMWA        PTCLDY    69  67  93 E6        30.10S
ST LOUIS       MOCLDY    80  72  76 S6        30.10S HX  84
$$


CITY           SKY/WX    TMP DP  RH WIND       PRES   REMARKS
TERRE HAUTE    CLEAR     71  69  93 CALM      30.12S FOG
EVANSVILLE     CLEAR     75  73  93 NE3       30.11S
INDIANAPOLIS   PTCLDY    74  72  93 CALM      30.13S
LAFAYETTE      MOCLDY    71  71 100 CALM      30.12S
MADISON        FOG       62  62 100 CALM      30.11R VSB 1/4
MILWAUKEE      MOCLDY    66  64  93 CALM      30.10S
$$





USA.gov is the U.S. government's official web portal to all federal, state and local government web resources and services.